Location: Shenandoah County Park
(38.9356°N, 78.4524°W)
Time: 13:44:18
(UTC-05:00)

Vanguard 2 Rocket - Pass Details

Date: 07 December 2023
Orbit: 555 x 3309 km, 32.9° (Epoch: 03 March)

Event Time Altitude Azimuth Distance (km) Brightness Sun altitude
Rises 21:32:06 0° 281° (W) 7,223 12.1 -53.6°
Reaches altitude 10° 21:39:14 10° 267° (W) 5,951 11.4 -55.0°
Maximum altitude 21:49:54 19° 230° (SW) 4,522 10.5 -56.9°
Enters shadow 21:53:24 18° 214° (SSW) 4,357 10.3 -57.6°
Drops below altitude 10° 21:58:18 10° 191° (S) 4,514 - -58.5°
Sets 22:02:42 0° 174° (S) 5,038 - -59.3°
